[[{"header":{"parameterUnit":"m.s-1","parameterCategory":1,"la1":30.2992,"la2":30.254,"lo1":-89.0895,"lo2":-89.0443,"dy":0.0025,"dx":0.0025,"nx":19,"ny":19,"refTime":"2026-04-22T09:00:00:Z","depth":0,"parameterNumber":2,"parameterNumberName":"U-component_of_WINDS"},"data":[0,0,0,-4.43,-4.4302,-4.4353,-4.4353,-4.4464,-4.4465,0,0,0,0,0,0,0,0,0,0,0,-4.4313,-4.4315,-4.43,-4.4302,-4.4353,-4.4353,-4.4463,-4.4465,0,0,0,0,0,0,0,0,0,0,0,-4.4312,-4.4314,-4.4316,-4.4302,-4.4353,-4.4353,-4.4463,-4.4408,0,0,0,0,0,0,0,0,0,0,-4.4351,-4.439,-4.4314,-4.4316,-4.4302,-4.4353,-4.4353,-4.4405,-4.4412,-4.446,0,-4.4512,0,-4.4491,-4.4475,-4.4476,0,0,0,-4.428,-4.4385,-4.4373,-4.4317,-4.4303,-4.4353,-4.4324,-4.4408,-4.4416,-4.447,-4.4513,-4.4516,-4.4492,-4.4476,-4.4477,-4.4831,-4.4834,0,0,-4.4278,-4.4337,-4.4368,-4.438,-4.4375,-4.4322,-4.4325,-4.4412,-4.4463,-4.4513,-4.4517,-4.4494,-4.4477,-4.4479,-4.4828,-4.4832,0,0,0,-4.4284,-4.4336,-4.4321,-4.4377,-4.4382,-4.4324,-4.4328,-4.4459,-4.4449,-4.4518,-4.4496,-4.4478,-4.448,-4.4825,-4.483,-4.5018,0,0,0,-4.4281,-4.434,-4.4321,-4.4358,-4.4382,-4.4421,-4.4374,-4.4443,-4.4451,-4.4495,-4.4478,-4.4482,-4.4822,-4.4828,-4.5007,-4.5097,0,0,0,-4.43,-4.4341,-4.4359,-4.4361,-4.4385,-4.4418,-4.4413,-4.4443,-4.4438,-4.4476,-4.4482,-4.482,-4.4827,-4.4996,-4.508,-4.5207,0,0,0,-4.4337,-4.4525,-4.4363,-4.4564,-4.4385,-4.4536,-4.4412,-4.452,-4.4575,-4.4479,-4.4823,-4.4829,-4.4993,-4.5069,-4.5197,-4.5324,-4.5384,0,0,-4.4608,-4.456,-4.4674,-4.453,-4.4724,-4.4523,-4.4744,-4.4738,-4.4687,-4.4786,-4.4794,-4.501,-4.5079,-4.5205,-4.5696,-4.5744,0,0,0,-4.478,-4.4863,-4.4901,-4.4957,-4.4957,-4.4965,-4.4919,-4.4916,-4.4997,-4.475,-4.5089,-4.5128,-4.52,-4.5258,-4.5298,-4.5356,-4.4859,-4.4858,-4.4858,-4.5248,-4.5173,-4.5357,-4.5289,-4.5344,-4.5295,-4.5333,-4.5321,-4.5229,-4.5311,-4.5339,-4.5647,-4.5717,-4.5747,-4.5808,-4.5402,-4.5402,-4.5403,-4.5404,-4.5637,-4.5742,-4.5616,-4.5748,-4.5669,-4.5779,-4.574,-4.5671,-4.5762,-4.5619,-4.5678,-4.5528,-4.5802,-4.5851,-4.5417,-4.5415,-4.5413,-4.5412,-4.5411,-4.5934,-4.5971,-4.5966,-4.6039,-4.6104,-4.6028,-4.6122,-4.6045,-4.5974,-4.6033,-4.6054,-4.6051,-4.6037,-4.6049,-4.605,-4.6051,-4.6052,-4.6053,-4.6053,-4.6244,-4.6232,-4.632,-4.6338,-4.6363,-4.6388,-4.6342,-4.6365,-4.6371,-4.6308,-4.6308,-4.6208,-4.5843,-4.5752,-4.607,-4.6067,-4.6065,-4.6063,-4.6062,-4.6664,-4.6557,-4.6694,-4.672,-4.6734,-4.6804,-4.6706,-4.676,-4.6768,-4.6817,-4.6705,-4.6448,-4.6393,-4.636,-4.6285,-4.6721,-4.6721,-4.6721,-4.6721,-4.6914,-4.6879,-4.7001,-4.7048,-4.7086,-4.7012,-4.7168,-4.7135,-4.7083,-4.7084,-4.701,-4.6904,-4.6874,-4.6837,-4.6794,-4.6722,-4.7259,-4.726,-4.726,-4.7167,-4.7133,-4.7281,-4.7229,-4.7235,-4.7242,-4.7387,-4.7446,-4.7365,-4.728,-4.7082,-4.706,-4.6887,-4.6835,-4.6744,-4.6679,-4.6546,0,0]},{"header":{"parameterUnit":"m.s-1","parameterCategory":1,"la1":30.2992,"la2":30.254,"lo1":-89.0895,"lo2":-89.0443,"dy":0.0025,"dx":0.0025,"nx":19,"ny":19,"refTime":"2026-04-22T09:00:00:Z","depth":0,"parameterNumber":3,"parameterNumberName":"V-component_of_WINDS"},"data":[0,0,0,0.8522,0.852,0.839,0.8389,0.8269,0.8268,0,0,0,0,0,0,0,0,0,0,0,0.859,0.859,0.8523,0.852,0.839,0.8389,0.8269,0.8268,0,0,0,0,0,0,0,0,0,0,0,0.859,0.859,0.859,0.852,0.839,0.8389,0.8269,0.8351,0,0,0,0,0,0,0,0,0,0,0.8469,0.856,0.859,0.859,0.8519,0.839,0.8389,0.8354,0.8345,0.8348,0,0.8359,0,0.8312,0.8263,0.8263,0,0,0,0.8498,0.8567,0.8506,0.859,0.8518,0.8391,0.8442,0.8349,0.8339,0.8337,0.8356,0.8351,0.831,0.8263,0.8262,0.8353,0.8354,0,0,0.8505,0.8582,0.8513,0.8501,0.8526,0.8447,0.8439,0.8342,0.8368,0.8356,0.8347,0.8308,0.8262,0.8261,0.8351,0.8353,0,0,0,0.8541,0.8588,0.8528,0.8508,0.8481,0.8444,0.8434,0.8372,0.8346,0.8345,0.8306,0.8262,0.8261,0.835,0.8352,0.85,0,0,0,0.8544,0.8608,0.8532,0.8578,0.8484,0.8425,0.8467,0.8353,0.8339,0.8307,0.8262,0.826,0.8348,0.8351,0.8492,0.8558,0,0,0,0.8588,0.8613,0.8604,0.8582,0.8529,0.8425,0.8392,0.8348,0.8317,0.8263,0.826,0.8347,0.835,0.8486,0.8546,0.8606,0,0,0,0.8658,0.8736,0.8608,0.868,0.8531,0.8518,0.8392,0.8378,0.8349,0.8261,0.8348,0.8352,0.8483,0.8539,0.8599,0.8671,0.8708,0,0,0.8799,0.8756,0.8792,0.8674,0.8704,0.8531,0.8581,0.8481,0.8405,0.8374,0.8375,0.8495,0.8545,0.8604,0.8884,0.8914,0,0,0,0.8863,0.8891,0.8882,0.8859,0.8786,0.8729,0.8613,0.8576,0.8546,0.8405,0.8529,0.8556,0.8588,0.8619,0.8644,0.8667,0.8369,0.8368,0.8368,0.9174,0.9074,0.9128,0.9014,0.8993,0.8874,0.8848,0.8777,0.868,0.8712,0.8702,0.8885,0.8924,0.8942,0.8967,0.873,0.8731,0.8731,0.8732,0.9374,0.9398,0.927,0.9277,0.9171,0.9174,0.9063,0.8995,0.8983,0.8883,0.8905,0.8806,0.8978,0.8995,0.8742,0.874,0.8739,0.8738,0.8737,0.9568,0.9562,0.9517,0.9475,0.9453,0.9332,0.9328,0.923,0.9137,0.916,0.9141,0.9138,0.9124,0.9157,0.9158,0.9158,0.9159,0.9159,0.916,0.9788,0.9732,0.9741,0.9672,0.9645,0.9597,0.9479,0.9449,0.9391,0.932,0.932,0.9222,0.9013,0.8964,0.9169,0.9168,0.9166,0.9165,0.9165,1.0031,0.9961,0.9976,0.995,0.986,0.9846,0.9721,0.967,0.9631,0.9632,0.9529,0.939,0.9338,0.9317,0.9276,0.9549,0.9549,0.9549,0.9549,1.0197,1.0161,1.0155,1.012,1.0073,0.9962,0.9982,0.9892,0.9786,0.9756,0.9702,0.9638,0.9621,0.9579,0.9552,0.9513,0.984,0.984,0.984,1.0342,1.0297,1.0334,1.0232,1.0155,1.0091,1.0107,1.0071,0.9936,0.985,0.9731,0.9718,0.9614,0.9585,0.9499,0.946,0.9384,0,0]}]]